Location: Azul
(36.7830°S, 59.8500°W)
Time: 18:12:06
(UTC-03:00)

BUGSAT 1 - Pass Details

Date: 01 November 2021
Orbit: 558 x 600 km, 98.1° (Epoch: 06 December)

Event Time Altitude Azimuth Distance (km) Brightness Sun altitude
Rises 04:46:38 0° 25° (NNE) 2,817 ? -13.1°
Reaches altitude 10° 04:48:48 10° 29° (NNE) 1,930 ? -12.7°
Maximum altitude 04:52:53 54° 106° (ESE) 739 ? -12.0°
Drops below altitude 10° 04:57:04 10° 183° (S) 1,974 ? -11.3°
Sets 04:59:18 0° 187° (S) 2,887 ? -10.9°
